Tracking 28096 objects as of 29-Sep-2023
HD Live streaming from Space Station
objects crossing your sky now

STARLINK-30122

Track STARLINK-30122 now!
10-day predictions
STARLINK-30122 is classified as:


NORAD ID: 56688
Int'l Code: 2023-067A
Perigee: 565.2 km
Apogee: 567.2 km
Inclination: 43.0 °
Period: 95.8 minutes
Semi major axis: 6937 km
RCS: Unknown
Launch date: May 19, 2023
Source: United States (US)
Launch site: AIR FORCE EASTERN TEST RANGE (AFETR)
Your satellite tracking list
Your tracking list is empty




NASA's NSSDC Master Catalog

Two Line Element Set (TLE):
1 56688U 23067A   23271.89235384  .00003802  00000-0  29636-3 0  9990
2 56688  43.0018  86.1911 0001399 269.2973  90.7709 15.02541308 21427
Source of the keplerian elements: AFSPC